Terminal Aerodrome Forecast
Issued by NWS Denver/Boulder, CO

Home | Current Version | Previous Version | Text Only | Print | Product List | Glossary On
Versions: 1 2 3 4 5 6 7 8 9 10 11 12 13 14 15 16 17 18 19 20 21 22 23 24 25 26 27 28 29 30 31 32 33 34 35 36 37 38 39 40 41 42 43 44 45 46 47 48 49 50
000
FTUS45 KBOU 232341
TAFDEN
TAF
KDEN 232341Z 2400/2506 18006KT P6SM BKN035
     FM240200 17006KT P6SM BKN045
     FM240700 18006KT P6SM SCT050
     FM241000 19005KT P6SM FEW050
     FM241500 VRB06KT P6SM SCT060
     FM241900 05009KT P6SM SCT050 BKN100
     FM250200 08010KT P6SM BKN050=

USA.gov is the U.S. government's official web portal to all federal, state and local government web resources and services.